Date_and_time,latitude,longitude,wind_speed,RelWindDirFrom,WindDirFrom,air_pressure,air_temperature,relative_humidity,Temp,platform_speed_wrt_ground,air_pressure_at_mean_sea_level,platform_orientation
2019-07-25 23:50,52.81787,-97.618965,2.1,5.8,266,976.97,21.8,58,23.05,0.0,1002.46,335.4
2019-07-26 00:00,52.81787,-97.6189783333333,1.9,4.8,266,976.95,21.6,59,23.07,0.0,1002.42,331.6
2019-07-26 00:10,52.8178683333333,-97.618965,1.8,4.2,254,976.89,21.5,60,23.07,0.0,1002.33,331.6
2019-07-26 00:20,52.8178783333333,-97.61897,1.8,5.0,251,976.77,21.4,61,23.08,0.0,1002.20,331.6
2019-07-26 00:30,52.817875,-97.6189683333333,3.3,6.4,244,976.72,21.6,55,23.07,0.0,1002.15,331.6
2019-07-26 00:40,52.8178733333333,-97.61897,2.7,5.2,240,976.67,21.8,53,23.06,0.0,1002.09,331.6
2019-07-26 00:50,52.8178733333333,-97.6189683333333,3.0,6.5,239,976.67,21.9,51,23.04,0.0,1002.09,331.6
2019-07-26 01:00,52.817875,-97.618965,5.2,6.9,212,976.63,21.6,63,23.01,0.0,1002.10,353.0
2019-07-26 01:10,52.817875,-97.618965,6.1,7.7,214,976.61,21.1,69,23.01,0.0,1002.09,353.0
2019-07-26 01:20,52.817875,-97.618965,7.4,15.0,248,976.67,21.3,62,23.00,0.0,1002.15,353.0
2019-07-26 01:30,52.8178766666667,-97.618965,9.2,17.1,246,976.76,20.9,61,22.97,0.0,1002.28,353.0
2019-07-26 01:40,52.8178683333333,-97.6189666666667,10.4,20.0,236,977.03,20.4,65,22.93,0.0,1002.59,353.0
2019-07-26 01:50,52.8178766666667,-97.618965,17.1,28.0,221,976.83,20.1,68,22.79,0.0,1002.40,353.0
2019-07-26 02:00,52.817875,-97.6189666666667,15.0,18.5,213,976.49,19.9,68,22.66,0.0,1002.08,0.0
2019-07-26 02:10,52.8178766666667,-97.6189683333333,15.0,18.1,206,976.33,19.8,69,22.56,0.0,1001.91,0.0
2019-07-26 02:20,52.8178766666667,-97.6189683333333,14.4,16.8,198,976.29,19.7,67,22.54,0.0,1001.87,0.0
2019-07-26 02:30,52.8178783333333,-97.6189683333333,13.8,18.5,192,976.30,19.8,66,22.70,0.0,1001.86,0.0
2019-07-26 02:40,52.81788,-97.6189666666667,14.5,17.9,188,976.33,19.9,67,22.85,0.0,1001.89,0.0
2019-07-26 02:50,52.81788,-97.6189666666667,15.8,19.0,192,976.38,19.9,68,22.90,0.0,1001.96,0.0
2019-07-26 03:00,52.8178816666667,-97.618965,16.8,20.0,211,976.32,20.2,64,22.92,0.0,1001.90,23.2
2019-07-26 03:10,52.8178816666667,-97.6189633333333,14.5,17.6,212,976.34,20.2,65,22.91,0.0,1001.91,23.2
2019-07-26 03:20,52.8178816666667,-97.6189616666667,12.7,16.4,211,976.36,20.1,66,22.92,0.0,1001.96,23.2
2019-07-26 03:30,52.8178833333333,-97.6189616666667,13.5,21.1,225,976.33,20.0,62,22.93,0.0,1001.94,23.2
2019-07-26 03:40,52.8178833333333,-97.6189616666667,10.5,18.5,234,976.39,19.9,60,22.90,0.0,1002.02,23.2
2019-07-26 03:50,52.8178833333333,-97.61896,10.4,18.2,233,976.33,19.8,61,22.78,0.0,1001.98,23.2
2019-07-26 04:00,52.817885,-97.61896,8.2,15.1,237,976.29,19.7,61,22.55,0.0,1001.95,37.6
2019-07-26 04:10,52.817885,-97.61896,7.8,13.9,239,976.24,19.6,62,22.35,0.0,1001.90,37.6
2019-07-26 04:20,52.817885,-97.61896,6.5,10.5,233,976.22,19.6,63,22.28,0.0,1001.89,37.6
2019-07-26 04:30,52.817885,-97.61896,7.5,11.1,222,976.24,19.6,63,22.45,0.0,1001.89,37.6
2019-07-26 04:40,52.817885,-97.61896,8.5,11.6,221,976.16,19.7,62,22.60,0.0,1001.81,37.6
2019-07-26 04:50,52.817885,-97.6189583333333,8.8,12.9,219,976.09,19.7,61,22.65,0.0,1001.73,37.6
2019-07-26 05:00,52.8178833333333,-97.6189583333333,7.0,12.1,227,976.07,19.7,61,22.66,0.0,1001.71,360.0
2019-07-26 05:10,52.8178833333333,-97.61896,5.9,10.0,218,976.05,19.5,62,22.67,0.0,1001.70,360.0
2019-07-26 05:20,52.8178833333333,-97.61896,4.8,11.0,224,976.08,19.5,63,22.66,0.0,1001.73,360.0
2019-07-26 05:30,52.8178833333333,-97.61896,5.7,12.6,224,976.13,19.1,63,22.64,0.0,1001.81,360.0
2019-07-26 05:40,52.8178833333333,-97.61896,5.1,8.9,218,976.00,18.8,62,22.54,0.0,1001.69,360.0
2019-07-26 05:50,52.8178533333333,-97.6189583333333,3.4,6.3,220,975.82,18.8,62,22.35,0.0,1001.51,360.0
2019-07-26 06:00,52.81786,-97.618955,2.9,4.6,213,975.77,18.9,63,22.18,0.0,1001.46,360.0
2019-07-26 06:10,52.8178366666667,-97.6189483333333,2.7,4.9,223,975.68,18.9,62,22.02,0.0,1001.36,360.0
2019-07-26 06:20,52.8178616666667,-97.61896,2.0,3.6,238,975.59,19.0,62,21.97,0.0,1001.27,360.0
2019-07-26 06:30,52.8178666666667,-97.6189583333333,3.3,5.2,218,975.50,19.0,61,21.98,0.0,1001.17,360.0
2019-07-26 06:40,52.8178683333333,-97.6189583333333,3.2,5.5,218,975.46,19.1,61,21.99,0.0,1001.13,360.0
2019-07-26 06:50,52.8178683333333,-97.6189616666667,4.4,6.1,205,975.37,19.1,62,21.96,0.0,1001.04,360.0
2019-07-26 07:00,52.8178766666667,-97.6189683333333,4.4,5.9,209,975.34,19.2,63,21.91,0.0,1001.01,217.6
2019-07-26 07:10,52.817865,-97.618965,4.8,9.3,214,975.31,19.1,64,21.85,0.0,1000.98,217.6
2019-07-26 07:20,52.8178733333333,-97.6189616666667,8.2,12.6,222,975.21,19.2,65,21.79,0.0,1000.90,217.6
2019-07-26 07:30,52.8178716666667,-97.61896,5.6,10.4,231,975.23,19.1,65,21.78,0.0,1000.93,217.6
2019-07-26 07:40,52.8178733333333,-97.6189633333333,5.3,9.0,233,975.16,19.1,66,21.73,0.0,1000.86,217.6
2019-07-26 07:50,52.8178733333333,-97.6189633333333,5.9,9.7,226,975.16,19.0,67,21.69,0.0,1000.86,217.6
2019-07-26 08:00,52.817875,-97.6189633333333,4.6,9.4,234,975.25,18.9,67,21.66,0.0,1000.95,360.0
2019-07-26 08:10,52.8178733333333,-97.61896,4.3,8.8,231,975.33,18.8,68,21.65,0.0,1001.04,360.0
2019-07-26 08:20,52.8178733333333,-97.6189616666667,3.8,8.9,240,975.43,18.7,67,21.65,0.0,1001.14,360.0
2019-07-26 08:30,52.817875,-97.61896,4.9,8.9,238,975.49,18.7,68,21.66,0.0,1001.20,360.0
2019-07-26 08:40,52.8178766666667,-97.61896,6.0,10.7,232,975.50,18.7,68,21.66,0.0,1001.21,360.0
2019-07-26 08:50,52.8178783333333,-97.6189683333333,5.3,9.6,238,975.54,18.7,69,21.65,0.0,1001.25,360.0
2019-07-26 09:00,52.817895,-97.6189716666667,5.7,10.4,236,975.47,18.6,69,21.63,0.0,1001.19,360.0
2019-07-26 09:10,52.8178866666667,-97.6189716666667,6.5,11.5,230,975.48,18.6,69,21.63,0.0,1001.19,360.0
2019-07-26 09:20,52.81789,-97.6189633333333,5.7,10.9,234,975.51,18.5,70,21.62,0.0,1001.24,360.0
2019-07-26 09:30,52.8178816666667,-97.61896,6.2,11.5,229,975.50,18.5,71,21.62,0.0,1001.23,360.0
2019-07-26 09:40,52.8178783333333,-97.618955,5.2,9.3,236,975.50,18.4,71,21.61,0.0,1001.23,360.0
2019-07-26 09:50,52.8178783333333,-97.6189566666667,4.8,8.7,242,975.58,18.4,71,21.61,0.0,1001.32,360.0
2019-07-26 10:00,52.8178783333333,-97.6189583333333,4.2,7.1,249,975.66,18.3,70,21.61,0.0,1001.41,90.0
2019-07-26 10:10,52.8178783333333,-97.6189583333333,3.6,7.6,251,975.72,18.3,70,21.60,0.0,1001.48,90.0
2019-07-26 10:20,52.8178766666667,-97.61896,3.6,7.2,253,975.82,18.3,71,21.56,0.0,1001.58,90.0
2019-07-26 10:30,52.8178766666667,-97.61896,3.9,7.8,250,975.85,18.3,72,21.56,0.0,1001.61,90.0
2019-07-26 10:40,52.8178283333333,-97.6187883333333,4.5,7.6,250,975.87,18.3,72,21.54,0.0,1001.63,90.0
2019-07-26 10:50,52.8125716666667,-97.618135,6.9,13.8,252,975.86,18.6,74,21.41,1.9,1001.61,90.0
2019-07-26 11:00,52.80624,-97.6155916666667,8.4,13.8,257,975.87,18.9,73,21.05,2.3,1001.60,170.1
2019-07-26 11:10,52.8028333333333,-97.6047316666667,6.2,8.4,243,975.97,19.4,73,21.16,2.7,1001.69,170.1
2019-07-26 11:20,52.801205,-97.593045,4.6,6.2,245,976.02,19.8,70,21.14,2.6,1001.73,170.1
2019-07-26 11:30,52.79969,-97.581215,4.3,6.6,233,976.07,20.0,69,21.04,2.6,1001.77,170.1
2019-07-26 11:40,52.795795,-97.5624183333333,3.0,5.0,237,976.12,19.9,70,21.02,4.3,1001.83,170.1
2019-07-26 11:50,52.7947916666667,-97.5612466666667,6.0,8.2,287,976.09,18.9,76,21.00,0.4,1001.84,170.1
2019-07-26 12:00,52.794835,-97.5612483333333,6.5,8.5,303,976.11,18.6,77,21.00,0.0,1001.88,123.4
2019-07-26 12:10,52.79482,-97.5612566666667,5.7,8.3,282,976.17,18.5,75,20.99,0.0,1001.94,123.4
2019-07-26 12:20,52.7947816666667,-97.56122,6.6,7.7,306,976.25,18.5,78,20.99,0.0,1002.03,123.4
2019-07-26 12:30,52.7947683333333,-97.5612266666667,6.1,7.3,308,976.29,18.4,78,21.00,0.0,1002.07,123.4
2019-07-26 12:40,52.7947966666667,-97.56122,6.7,8.6,308,976.31,18.5,78,21.01,0.0,1002.08,123.4
2019-07-26 12:50,52.7958683333333,-97.5624816666667,7.8,11.0,316,976.40,18.5,78,21.01,0.5,1002.15,123.4
2019-07-26 13:00,52.8230333333333,-97.54038,13.3,15.5,347,976.13,18.4,76,21.01,10.9,1001.86,83.8
2019-07-26 13:10,52.8504466666667,-97.5188333333333,12.5,14.7,348,976.32,18.4,74,20.97,10.9,1002.04,83.8
2019-07-26 13:20,52.878115,-97.4979133333333,12.7,14.5,352,976.42,18.4,76,20.76,11.0,1002.13,83.8
2019-07-26 13:30,52.9001833333333,-97.4749933333333,11.4,15.0,3,976.57,18.5,76,20.73,9.4,1002.28,83.8
2019-07-26 13:40,52.8877483333333,-97.4359816666667,6.8,10.3,88,976.79,18.5,76,21.26,9.6,1002.56,83.8
2019-07-26 13:50,52.8876083333333,-97.43579,5.3,8.1,16,976.82,18.7,77,21.61,0.1,1002.59,83.8
2019-07-26 14:00,52.887715,-97.43567,3.9,6.5,8,976.87,18.7,78,21.70,0.0,1002.64,53.1
2019-07-26 14:10,52.8876433333333,-97.4356366666667,3.7,5.4,11,976.96,19.1,75,21.73,0.0,1002.72,53.1
2019-07-26 14:20,52.8876266666667,-97.4356366666667,4.6,6.8,17,977.16,19.3,77,21.77,0.0,1002.92,53.1
2019-07-26 14:30,52.8875183333333,-97.435665,5.6,7.8,10,977.22,19.0,78,21.78,0.0,1003.00,53.1
2019-07-26 14:40,52.887485,-97.4356333333333,5.8,7.8,358,977.29,19.0,78,21.80,0.0,1003.07,53.1
2019-07-26 14:50,52.8874933333333,-97.4355983333333,5.7,7.5,344,977.38,19.0,77,21.80,0.0,1003.16,53.1
2019-07-26 15:00,52.88749,-97.435735,6.0,8.0,339,977.45,19.1,76,21.81,0.0,1003.23,39.2
2019-07-26 15:10,52.897985,-97.4695383333333,12.9,17.9,317,977.24,19.0,76,21.80,8.3,1003.02,39.2
2019-07-26 15:20,52.90103,-97.5195033333333,14.3,16.5,296,977.29,19.0,75,21.52,10.9,1003.07,39.2
2019-07-26 15:30,52.90007,-97.5701466666667,13.6,15.2,284,977.35,19.1,76,21.07,11.0,1003.13,39.2
2019-07-26 15:40,52.9135316666667,-97.606765,12.0,15.0,311,977.39,19.0,77,20.76,9.3,1003.16,39.2
2019-07-26 15:50,52.93815,-97.6361483333333,17.0,19.3,332,977.16,19.0,78,20.56,10.9,1002.92,39.2
2019-07-26 16:00,52.9635933333333,-97.663915,18.4,20.0,336,977.06,19.0,78,20.64,11.0,1002.80,332.1
2019-07-26 16:10,52.987365,-97.6891783333333,16.5,18.5,333,977.32,18.9,76,20.62,10.2,1003.07,332.1
2019-07-26 16:20,52.99486,-97.690895,9.3,10.7,332,977.90,18.8,78,20.52,2.7,1003.68,332.1
2019-07-26 16:30,53.0023016666667,-97.6926533333333,10.1,11.8,342,978.01,18.9,76,20.52,2.7,1003.79,332.1
2019-07-26 16:40,53.009625,-97.6949916666667,10.8,12.9,343,978.02,19.0,74,20.52,2.7,1003.79,332.1
2019-07-26 16:50,53.0242266666667,-97.6996516666667,13.8,19.0,359,977.92,19.1,74,20.55,5.4,1003.68,332.1
2019-07-26 17:00,53.0250733333333,-97.70159,8.5,12.4,336,978.37,19.1,75,20.57,0.5,1004.14,310.7
2019-07-26 17:10,53.0250783333333,-97.7015466666667,7.0,9.1,345,978.47,19.3,74,20.55,0.0,1004.25,310.7
2019-07-26 17:20,53.025065,-97.7014933333333,7.4,8.9,342,978.57,19.3,73,20.52,0.0,1004.34,310.7
2019-07-26 17:30,53.031095,-97.71334,11.0,20.0,335,978.48,19.3,73,20.58,3.4,1004.25,310.7
2019-07-26 17:40,53.0491833333333,-97.7537,18.9,21.4,325,978.26,19.3,74,20.67,10.9,1004.02,310.7
2019-07-26 17:50,53.0673333333333,-97.7940566666667,18.4,21.1,327,978.37,19.4,73,20.68,10.9,1004.13,310.7
2019-07-26 18:00,53.0853466666667,-97.8342766666667,18.3,21.4,327,978.42,19.4,75,20.69,10.8,1004.19,309.7
2019-07-26 18:10,53.103305,-97.8743533333333,19.4,21.9,326,978.51,19.4,75,20.66,10.8,1004.29,309.7
2019-07-26 18:20,53.12131,-97.9141216666667,20.6,23.1,327,978.60,19.5,74,20.65,10.8,1004.37,309.7
2019-07-26 18:30,53.1394266666667,-97.9536483333333,19.0,22.5,332,978.62,19.6,73,20.71,10.7,1004.39,309.7
2019-07-26 18:40,53.15791,-97.9927166666667,18.8,20.4,338,978.67,19.5,77,20.80,10.7,1004.43,309.7
2019-07-26 18:50,53.1761983333333,-98.0320383333333,19.3,21.9,338,978.74,19.4,79,20.89,10.7,1004.51,309.7
2019-07-26 19:00,53.19441,-98.07136,19.9,22.3,340,978.84,19.2,81,20.96,10.7,1004.61,313.5
2019-07-26 19:10,53.2132233333333,-98.109685,20.6,25.1,344,978.98,19.1,80,20.99,10.7,1004.76,313.5
2019-07-26 19:20,53.23137,-98.1488666666667,22.7,25.8,343,978.95,19.0,80,20.97,10.7,1004.73,313.5
2019-07-26 19:30,53.2493916666667,-98.1885033333333,22.3,24.9,341,979.09,18.8,81,20.86,10.7,1004.88,313.5
2019-07-26 19:40,53.2674466666667,-98.2282183333333,22.0,25.0,344,979.30,18.6,80,20.82,10.7,1005.10,313.5
2019-07-26 19:50,53.2854916666667,-98.2679866666667,21.5,25.3,343,979.48,18.6,80,20.79,10.7,1005.29,313.5
2019-07-26 20:00,53.303345,-98.3085383333333,21.2,24.5,344,979.71,18.5,82,20.69,10.8,1005.53,307.6
2019-07-26 20:10,53.32116,-98.3489266666667,20.6,23.0,342,979.88,18.5,80,20.62,10.8,1005.70,307.6
2019-07-26 20:20,53.3398666666667,-98.3881366666667,20.0,22.9,343,979.98,18.5,80,20.60,10.8,1005.80,307.6
2019-07-26 20:30,53.3589283333333,-98.426945,19.4,22.7,344,980.08,18.5,79,20.56,10.8,1005.90,307.6
2019-07-26 20:40,53.376865,-98.46389,18.6,22.0,341,980.21,18.4,80,20.49,10.2,1006.04,307.6
2019-07-26 20:50,53.3807016666667,-98.4787583333333,13.4,16.3,355,980.71,18.5,81,20.46,3.5,1006.56,307.6
2019-07-26 21:00,53.3831716666667,-98.4829916666667,12.2,15.7,5,980.73,18.5,80,20.46,1.3,1006.59,307.7
2019-07-26 21:10,53.3800583333333,-98.4701183333333,9.6,12.1,9,981.03,18.5,79,20.44,3.0,1006.90,307.7
2019-07-26 21:20,53.37724,-98.4399766666667,10.5,14.6,28,981.04,18.2,78,20.44,6.6,1006.94,307.7
2019-07-26 21:30,53.3748033333333,-98.4292116666667,8.7,10.6,5,981.12,18.2,78,20.45,2.5,1007.03,307.7
2019-07-26 21:40,53.3729083333333,-98.4174466666667,8.7,10.5,2,981.12,18.2,78,20.48,2.6,1007.03,307.7
2019-07-26 21:50,53.3728766666667,-98.4053466666667,9.3,11.7,4,981.08,18.3,77,20.53,2.6,1006.98,307.7
2019-07-26 22:00,53.3751266666667,-98.3885466666667,10.4,13.2,8,981.12,18.3,76,20.57,3.7,1007.02,313.7
2019-07-26 22:10,53.374945,-98.3883516666667,9.6,11.5,4,980.99,18.6,77,20.64,0.1,1006.89,313.7
2019-07-26 22:20,53.374965,-98.388415,9.0,10.2,2,981.05,18.5,77,20.66,0.0,1006.94,313.7
2019-07-26 22:30,53.3749816666667,-98.3882266666667,8.8,10.9,351,981.11,18.6,75,20.68,0.0,1007.01,313.7
2019-07-26 22:40,53.37499,-98.3884683333333,8.5,10.1,358,981.25,18.6,76,20.70,0.1,1007.15,313.7
2019-07-26 22:50,53.3749883333333,-98.3883,8.2,9.9,352,981.33,18.4,77,20.71,0.0,1007.24,313.7
2019-07-26 23:00,53.3749733333333,-98.3882866666667,6.9,8.3,350,981.45,18.5,79,20.73,0.0,1007.36,326.4
2019-07-26 23:10,53.374985,-98.3881883333333,6.7,9.2,328,981.57,18.5,78,20.74,0.0,1007.50,326.4
2019-07-26 23:20,53.3749883333333,-98.3881283333333,7.4,8.9,323,981.63,18.6,78,20.76,0.0,1007.56,326.4
2019-07-26 23:30,53.37499,-98.3880883333333,8.7,10.5,310,981.58,18.7,78,20.76,0.0,1007.50,326.4
